Regional Weather Roundup
Issued by NWS

Home | Current Version | Previous Version | Graphics & Text | Print | Product List | Glossary On
Versions: 1 2 3 4 5 6 7 8 9 10 11 12 13 14 15 16 17 18 19 20 21 22 23 24 25 26 27 28 29 30 31 32 33 34 35 36 37 38 39 40 41 42 43 44 45 46 47 48 49 50
000
ASUS43 KFSD 210802
RWRSD

WEATHER ROUNDUP FOR SOUTH DAKOTA
NATIONAL WEATHER SERVICE SIOUX FALLS SD
300 AM CDT TUE APR 21 2015

NOTE: "FAIR" INDICATES FEW OR NO CLOUDS BELOW 12,000 FEET WITH NO
SIGNIFICANT WEATHER AND/OR OBSTRUCTIONS TO VISIBILITY.


SDZ001>005-009-010-012>017-210900-
NORTHWEST AND NORTH CENTRAL SOUTH DAKOTA

CITY           SKY/WX    TMP DP  RH WIND       PRES   REMARKS
BUFFALO          N/A     31  21  66 W12       29.72  WCI  22
FAITH            N/A     34  17  50 W6        29.78F WCI  29
MOBRIDGE       PTCLDY    29  20  69 N6        29.75F WCI  23
$$

SDZ012>016-024>037-041>051-057-063-072>074-210900-
SOUTHWEST AND SOUTH CENTRAL SOUTH DAKOTA

CITY           SKY/WX    TMP DP  RH WIND       PRES   REMARKS
RAPID CTY ARPT CLEAR     32  22  66 W6        29.85F WCI  26
PIERRE         CLEAR     33  21  61 W9        29.79F WCI  25
CUSTER         CLEAR     31  16  54 W8        29.87F WCI  23
ELLSWORTH AFB  CLEAR     31  22  67 W9        29.83F WCI  23
PHILIP         CLEAR     29  32 100 W8        29.84F WCI  21
PINE RIDGE     CLEAR     25  20  81 CALM      29.90F
WINNER         FAIR      36  18  48 W12       29.83F
$$

SDZ004>011-016>023-039-040-210900-
NORTHEAST SOUTH DAKOTA

CITY           SKY/WX    TMP DP  RH WIND       PRES   REMARKS
ABERDEEN       CLEAR     31  20  63 NW10      29.75R WCI  22
WATERTOWN      CLEAR     33  25  72 W14       29.68S WCI  23
BROOKINGS      CLEAR     30  25  80 N6        29.70F WCI  24
SISSETON         N/A     33  26  75 NW20      29.66S WCI  21
$$

SDZ017-020-022-023-036>040-048>070-210900-
SOUTHEAST SOUTH DAKOTA

CITY           SKY/WX    TMP DP  RH WIND       PRES   REMARKS
SIOUX FALLS    CLEAR     32  20  61 W8        29.73  WCI  25
HURON          CLEAR     29  14  53 W12       29.75F WCI  19
MITCHELL       CLEAR     30  11  45 W12       29.78F WCI  20
YANKTON        CLEAR     36  10  35 W12       29.79S
$$

ABBREVIATIONS USED IN REMARKS
   TC - TEMPERATURE IN CELSIUS
  WCI - WIND CHILL INDEX
   HX - HEAT INDEX
  VSB - VISIBILITY



USA.gov is the U.S. government's official web portal to all federal, state and local government web resources and services.